#timestamp,LO_Frequency,Hit,StdDev 
1511949615.7,286047003.4,N
1511949635.5,286047001.5,N
1511949655.3,286047003.7,N
1511949675.2,286047004.7,N
1511949695.9,286047006.7,N
1511949715.7,286047007.6,N
1511949735.6,286047007.6,N
1511949755.4,286047008.8,N
1511949775.2,286047007.3,N
1511949795.0,286047002.6,N
1511949796.0,286047002.6,N
1511949815.8,286046996.8,N
1511949835.6,286046994.9,N
1511949855.4,286046996.0,N
1511949875.3,286046991.1,N
1511949895.1,286046991.0,N
1511949915.8,286046991.1,N
1511949935.7,286046991.3,N
1511949955.5,286046988.6,N
1511949975.3,286046990.8,N
1511949995.2,286046989.3,N
1511950015.9,286046990.9,N
1511950035.7,286046990.8,N
1511950055.6,286046986.9,N
1511950075.4,286046989.6,N
1511950095.2,286046988.6,N
1511950115.0,286046987.0,N
1511950116.0,286046987.0,N
1511950135.8,286046984.5,N
1511950155.6,286046986.8,N
1511950175.4,286046986.2,N
1511950195.3,286046985.0,N
1511950215.1,286046984.1,N
1511950235.8,286046987.0,N
1511950255.7,286046989.5,N
1511950275.5,286046988.8,N
1511950295.3,286046988.6,N
1511950315.2,286046991.9,N
1511950335.9,286046994.5,N
1511950355.7,286046990.7,N
1511950375.6,286046992.8,N
1511950395.4,286046990.8,N
1511950415.2,286046992.9,N
1511950435.1,286046988.5,Y
1511950436.0,286046988.5,P
1511950455.8,286047000.2,N
1511950475.6,286047004.3,N
1511950495.5,286047005.2,N
1511950515.3,286047005.3,N
1511950535.1,286047006.8,N
1511950555.9,286047004.9,N
1511950575.7,286047003.3,N
1511950595.5,286047002.9,N
1511950615.3,286047006.9,N
1511950635.2,286047008.9,N
1511950655.0,286047008.7,N
1511950655.9,286047008.7,N
1511950675.7,286047009.6,N
1511950695.6,286047013.8,N
1511950715.4,286047012.6,N
1511950735.2,286047014.7,N
1511950755.1,286047018.3,N
1511950756.0,286047018.3,N
1511950775.8,286047020.4,N
1511950795.6,286047018.4,N
1511950815.5,286047021.4,N
1511950835.3,286047023.3,N
1511950855.1,286047022.5,N
1511950875.9,286047023.5,N
1511950895.7,286047021.4,N
1511950915.5,286047022.1,N
1511950935.4,286047020.4,N
1511950955.2,286047020.3,N
1511950975.0,286047017.6,N
1511950975.9,286047017.6,N
1511950995.7,286047019.3,N
1511951015.6,286047019.8,N
1511951035.4,286047016.2,N
1511951055.2,286047020.4,Y
1511951075.1,286047007.0,P
1511951076.0,286047007.0,N
1511951095.8,286047009.0,N
1511951115.6,286047004.6,N
1511951135.5,286047009.0,N
1511951155.3,286047009.2,N
1511951175.1,286047005.1,N
1511951195.9,286047001.0,N
1511951215.7,286046996.6,N
1511951235.5,286046995.9,N
1511951255.4,286046998.3,N
1511951275.2,286046997.9,N
1511951295.0,286046999.3,N
1511951295.9,286046999.3,N
1511951315.8,286046996.7,N
1511951335.6,286046996.4,N
1511951355.4,286046991.7,N
1511951375.2,286046991.8,N
1511951395.1,286046994.5,N
1511951396.0,286046994.5,N
1511951415.8,286046996.3,N
1511951435.6,286046999.3,N
1511951455.5,286046996.4,N
1511951475.3,286046996.1,N
1511951495.1,286046995.4,N
1511951515.9,286046997.5,N
1511951535.7,286047001.7,N
1511951555.5,286047002.5,N
1511951575.4,286047001.4,N
1511951595.2,286047005.4,N
1511951615.0,286047004.1,N
1511951615.9,286047004.1,N
1511951635.8,286047001.4,N
1511951655.6,286047000.1,N
1511951675.4,286046996.5,N
1511951695.2,286047000.6,N
1511951715.1,286046998.6,N
1511951716.0,286046998.6,N
1511951735.8,286047003.9,N
1511951755.6,286047005.7,N
1511951775.5,286047003.8,N
1511951795.3,286047001.6,N
1511951815.1,286047004.4,N
1511951835.9,286046998.5,N
1511951855.7,286046998.8,N
1511951875.5,286046999.1,N
1511951895.4,286046995.3,N
1511951915.2,286046995.1,N
1511951935.0,286046995.6,N
1511951935.9,286046995.6,N
1511951955.8,286046995.5,N
1511951975.6,286046996.1,N
1511951995.4,286046995.6,N
1511952015.3,286046998.9,N
1511952035.1,286046997.5,N
1511952036.0,286046997.5,N
1511952055.8,286046995.2,N
1511952075.7,286046996.6,N
1511952095.5,286046998.3,N
1511952115.3,286046999.7,N
1511952135.1,286047000.7,N
1511952155.9,286047002.5,N
1511952175.7,286046999.7,N
1511952195.5,286047001.4,N
1511952215.4,286047005.5,N
1511952235.2,286047002.0,N
1511952255.0,286047001.8,N
1511952255.9,286047001.8,N
1511952275.8,286047003.0,N
1511952295.6,286047001.4,N
1511952315.4,286047004.3,N
1511952335.3,286047001.3,N
1511952355.1,286047004.4,N
1511952356.0,286047004.4,N
1511952375.8,286047003.6,N
1511952395.7,286047003.9,N
1511952415.5,286047003.8,N
1511952435.3,286046998.3,N
1511952455.2,286046997.3,N
1511952475.9,286046997.0,N
1511952495.7,286046999.3,N
1511952515.6,286046994.9,N
1511952535.4,286046998.0,N
1511952555.2,286046998.4,N
1511952575.0,286047000.6,N
1511952575.9,286047000.6,N
1511952595.8,286047001.8,N
1511952615.6,286047004.6,N
1511952635.4,286047005.5,N
1511952655.3,286047003.7,N
1511952675.1,286047005.9,N
1511952695.8,286047007.2,N
1511952715.7,286047004.6,N
1511952735.5,286047005.0,N
1511952755.3,286047006.6,N
1511952775.2,286047005.7,N
1511952795.9,286047003.4,N
1511952815.7,286047005.3,N
1511952835.6,286047004.7,N
1511952855.4,286047008.7,N
1511952875.2,286047008.5,N
1511952895.0,286047009.2,N
1511952896.0,286047009.2,N
1511952915.8,286047006.1,N
1511952935.6,286047008.5,N
1511952955.4,286047006.1,N
1511952975.3,286047006.2,N
1511952995.1,286047007.2,N
1511953015.8,286047005.0,N
1511953035.7,286047007.0,N
1511953055.5,286047007.4,N
1511953075.3,286047007.4,N
1511953095.2,286047003.2,N
1511953115.9,286047004.8,N
1511953135.7,286047003.4,N
1511953155.6,286047003.8,N
1511953175.4,286047004.0,N
1511953195.2,286047002.6,N
